[[{"header":{"parameterUnit":"m.s-1","parameterCategory":2,"la1":30.2991,"la2":30.254,"lo1":-89.0895,"lo2":-89.0444,"dy":0.0017,"dx":0.0017,"nx":28,"ny":28,"refTime":"2025-11-21T09:00:00:Z","depth":"0","parameterNumber":2,"parameterNumberName":"U-component_of_CURRENTS"},"data":[0,0,0,0,0,0,0,0,0,0,0,0,0,0,0,0,0,0,0,0,0,0,0,0,0,0,0,0,0,0,0,0,0,0,0,0,0,0,0,0,0,0,0,0,0,0,0,0,0,0,0,0,0,0,0,0,0,0,0.1905,0.1905,0,0.1893,0.1892,0.1892,0.1875,0.1875,0.1875,0.1874,0.1872,0.1872,0.1873,0,0,0,0,0,0,0,0,0,0,0,0,0,0.1935,0.1934,0.1905,0.1905,0.1905,0.1893,0.1892,0.1892,0.1875,0.1875,0.1875,0.1874,0.1872,0.1872,0.1873,0,0,0,0,0,0,0,0,0,0,0,0,0,0.1921,0.1934,0.1905,0.1895,0.1894,0.1893,0.1892,0.1892,0.1875,0.1875,0.1875,0.1874,0.1872,0.1872,0.1873,0.1881,0,0,0.1873,0.1874,0,0,0,0,0,0,0,0,0.1922,0.192,0.1897,0.1896,0.1895,0.1886,0.1902,0.1889,0.1875,0.1882,0.1874,0.1874,0.1878,0.1878,0.1876,0.1881,0.1881,0.1873,0.1874,0.1874,0.1874,0,0,0,0,0,0,0,0.1923,0.1921,0.1899,0.1897,0.1895,0.1899,0.1896,0.19,0.1882,0.1881,0.188,0.188,0.1878,0.1875,0.1875,0.1881,0.1873,0.1874,0.1874,0.1874,0.1918,0.1919,0,0,0,0,0,0,0.1925,0.1922,0.19,0.1899,0.1909,0.1898,0.1896,0.1888,0.1882,0.188,0.188,0.1879,0.1875,0.1875,0.1875,0.1902,0.1874,0.1874,0.1874,0.1917,0.1918,0.1919,0,0,0,0,0,0,0.1926,0.1923,0.19,0.1911,0.1908,0.1898,0.189,0.1888,0.1886,0.1881,0.1879,0.188,0.1875,0.1875,0.1884,0.1901,0.1874,0.1874,0.1916,0.1918,0.1919,0.1945,0,0,0,0,0,0,0.1926,0.1923,0.1922,0.1911,0.1908,0.1901,0.1891,0.1888,0.1887,0.1885,0.188,0.1879,0.1875,0.1884,0.1884,0.1901,0.1874,0.1915,0.1917,0.1918,0.1943,0.1947,0.1951,0,0,0,0,0,0.1927,0.1926,0.1921,0.1919,0.1905,0.1901,0.19,0.1892,0.1887,0.1888,0.1888,0.188,0.1897,0.1885,0.1885,0.1902,0.1914,0.1916,0.1918,0.1941,0.1946,0.1951,0,0,0,0,0,0,0.1939,0.1924,0.1919,0.1913,0.1909,0.1899,0.1901,0.1895,0.1895,0.1895,0.1888,0.1888,0.1905,0.1901,0.1888,0.1923,0.1906,0.1908,0.1923,0.1928,0.1932,0.1927,0.1875,0,0,0,0,0,0.1941,0.1935,0.1925,0.1921,0.192,0.1911,0.191,0.1904,0.1902,0.1901,0.1897,0.1901,0.1916,0.1919,0.1926,0.194,0.1951,0.1954,0.1958,0.1962,0.1959,0.201,0.2019,0.1927,0.1927,0.1927,0,0,0.1945,0.1937,0.1933,0.1923,0.192,0.192,0.1909,0.1909,0.1913,0.1902,0.1907,0.1914,0.1924,0.1942,0.195,0.194,0.1992,0.1965,0.1967,0.1963,0.2014,0.2022,0.203,0.1929,0.1928,0.1928,0,0,0.1949,0.1943,0.1938,0.1936,0.1931,0.193,0.1931,0.1922,0.1923,0.1931,0.1931,0.1948,0.1957,0.1969,0.1978,0.201,0.2014,0.2015,0.2028,0.2079,0.2086,0.2094,0.211,0.2118,0.2015,0.2015,0.2015,0,0.1956,0.1945,0.1939,0.1936,0.1935,0.1935,0.1934,0.194,0.1936,0.1944,0.1937,0.1972,0.1973,0.201,0.2016,0.2019,0.2038,0.2007,0.2084,0.2091,0.2098,0.2113,0.2122,0.2017,0.2017,0.2016,0.2016,0,0.1952,0.1948,0.1949,0.1944,0.1945,0.1946,0.1951,0.1958,0.1963,0.1969,0.2001,0.2011,0.2033,0.204,0.2033,0.2084,0.2078,0.2085,0.207,0.2109,0.2122,0.2131,0.2019,0.2018,0.2018,0.2018,0,0,0.1952,0.1947,0.1946,0.1945,0.1947,0.1947,0.1966,0.1981,0.2002,0.2012,0.2043,0.2064,0.2074,0.2084,0.209,0.2121,0.2176,0.2119,0.2121,0.2132,0.227,0.2183,0.2184,0.2205,0.2207,0.2208,0.2256,0,0.1951,0.1943,0.1945,0.1948,0.1944,0.1956,0.1975,0.1993,0.2016,0.205,0.2077,0.2112,0.2093,0.2114,0.2143,0.2178,0.2202,0.2161,0.2233,0.2234,0.2151,0.2193,0.2046,0.207,0.2264,0.2266,0.2267,0,0.1939,0.1937,0.1931,0.1945,0.1947,0.1954,0.1987,0.2008,0.2061,0.2083,0.2126,0.2153,0.2201,0.2185,0.2256,0.2235,0.2248,0.2265,0.2268,0.2182,0.2164,0.2065,0.2078,0.1989,0.228,0.2279,0.2278,0,0.1921,0.1927,0.1922,0.1923,0.1941,0.195,0.197,0.2013,0.2039,0.2114,0.2149,0.2211,0.2248,0.2293,0.2313,0.2302,0.2386,0.2381,0.2311,0.2304,0.2188,0.2167,0.2118,0.243,0.2429,0.2429,0.2429,0,0.1908,0.1905,0.1913,0.1909,0.1922,0.1939,0.1968,0.2006,0.2062,0.2102,0.2167,0.2208,0.228,0.2329,0.2345,0.2349,0.2418,0.2314,0.2317,0.219,0.217,0.2093,0.2078,0.2431,0.2431,0.243,0.243,0,0.1881,0.1885,0.1882,0.19,0.1908,0.1917,0.1956,0.198,0.2047,0.2106,0.2135,0.2221,0.2278,0.2328,0.2398,0.2375,0.2305,0.238,0.2203,0.2184,0.2007,0.2,0.1875,0.1824,0.2311,0.2309,0.2308,0,0.1864,0.1855,0.1868,0.1866,0.1871,0.1889,0.1901,0.1962,0.199,0.2101,0.2125,0.2205,0.2231,0.2293,0.2276,0.2287,0.2226,0.2154,0.2097,0.1973,0.197,0.188,0.1842,0.1956,0.1952,0.1949,0.1946,0,0.1835,0.1837,0.1836,0.183,0.1834,0.1842,0.1868,0.1888,0.1967,0.2018,0.2083,0.2118,0.2154,0.2087,0.2089,0.208,0.1999,0.208,0.2016,0.1732,0.1571,0.1531,0.1936,0.1915,0.1918,0.192,0.1922,0.1923,0.1814,0.1803,0.1796,0.1786,0.1788,0.1781,0.177,0.1805,0.1837,0.1881,0.1972,0.1959,0.1927,0.1891,0.1872,0.1711,0.1767,0.1628,0.1644,0.1575,0.1467,0.1778,0.1722,0.1724,0.1726,0.1727,0.1729,0,0.1775,0.1761,0.175,0.1727,0.1699,0.1722,0.173,0.1706,0.1707,0.1739,0.1766,0.1675,0.1573,0.1529,0.1389,0.1294,0.123,0.1243,0.1096,0.1099,0.1425,0.1349,0.1131,0.1131,0.1132,0.1132,0.1132,0.1132,0.1755,0.1721,0.1705,0.1639,0.162,0.1562,0.155,0.1532,0.1527,0.1451,0.1369,0.1361,0.13,0.1139,0.0982,0.0959,0.0875,0.077,0.0842,0.1075,0.1112,0.1147,0.107,0.0798,0.0797,0.0409,0.0406,0.0404]},{"header":{"parameterUnit":"m.s-1","parameterCategory":2,"la1":30.2991,"la2":30.254,"lo1":-89.0895,"lo2":-89.0444,"dy":0.0017,"dx":0.0017,"nx":28,"ny":28,"refTime":"2025-11-21T09:00:00:Z","depth":"0","parameterNumber":3,"parameterNumberName":"V-component_of_CURRENTS"},"data":[0,0,0,0,0,0,0,0,0,0,0,0,0,0,0,0,0,0,0,0,0,0,0,0,0,0,0,0,0,0,0,0,0,0,0,0,0,0,0,0,0,0,0,0,0,0,0,0,0,0,0,0,0,0,0,0,0,0,0.0323,0.0323,0,0.0316,0.0316,0.0316,0.0305,0.0305,0.0304,0.0304,0.029,0.029,0.029,0,0,0,0,0,0,0,0,0,0,0,0,0,0.0306,0.0307,0.0323,0.0323,0.0323,0.0316,0.0316,0.0316,0.0305,0.0305,0.0304,0.0304,0.029,0.029,0.029,0,0,0,0,0,0,0,0,0,0,0,0,0,0.0307,0.0307,0.0323,0.0317,0.0316,0.0316,0.0316,0.0316,0.0305,0.0305,0.0304,0.0304,0.029,0.029,0.029,0.0293,0,0,0.0289,0.0289,0,0,0,0,0,0,0,0,0.0307,0.0308,0.0318,0.0317,0.0316,0.0311,0.0305,0.0308,0.0305,0.0309,0.0304,0.0304,0.0297,0.0296,0.0295,0.0292,0.0292,0.0289,0.0288,0.0288,0.0288,0,0,0,0,0,0,0,0.0307,0.0308,0.032,0.0318,0.0317,0.0307,0.0308,0.0305,0.0304,0.0308,0.0308,0.0308,0.0297,0.0295,0.0295,0.0291,0.0289,0.0288,0.0288,0.0288,0.0291,0.0292,0,0,0,0,0,0,0.031,0.0308,0.032,0.032,0.0312,0.0308,0.0308,0.0313,0.0304,0.0303,0.0308,0.0307,0.0296,0.0295,0.0294,0.0308,0.0288,0.0288,0.0288,0.0291,0.0291,0.0292,0,0,0,0,0,0,0.031,0.0312,0.032,0.0314,0.0314,0.0309,0.0314,0.0313,0.0313,0.0304,0.0302,0.0309,0.0296,0.0294,0.0297,0.0307,0.0288,0.0288,0.0291,0.0291,0.0291,0.0329,0,0,0,0,0,0,0.031,0.0312,0.0315,0.0314,0.0315,0.0324,0.0314,0.0313,0.0313,0.0312,0.0304,0.0303,0.0295,0.0298,0.0297,0.0306,0.0287,0.029,0.0291,0.0291,0.0328,0.0331,0.0334,0,0,0,0,0,0.0309,0.0318,0.0316,0.0317,0.032,0.0324,0.0324,0.0319,0.0314,0.0317,0.0312,0.0303,0.03,0.0298,0.0297,0.0306,0.029,0.0291,0.0291,0.0326,0.033,0.0334,0,0,0,0,0,0,0.0311,0.0318,0.0315,0.0325,0.0325,0.0323,0.0326,0.0321,0.032,0.0319,0.0309,0.0307,0.0313,0.0303,0.0301,0.0308,0.0292,0.0293,0.032,0.0323,0.0326,0.0339,0.0287,0,0,0,0,0,0.0314,0.0323,0.0324,0.0332,0.0334,0.033,0.033,0.0327,0.0326,0.0324,0.032,0.0315,0.0315,0.0314,0.0311,0.0316,0.0309,0.032,0.0323,0.0326,0.0334,0.0341,0.0345,0.0294,0.0294,0.0294,0,0,0.0316,0.0321,0.0326,0.0333,0.0333,0.0345,0.033,0.0334,0.0344,0.0323,0.0337,0.0326,0.0318,0.0325,0.0326,0.0319,0.0334,0.0326,0.0329,0.0336,0.0342,0.0347,0.0352,0.0294,0.0294,0.0294,0,0,0.033,0.0332,0.0346,0.035,0.0353,0.0354,0.0356,0.0356,0.0358,0.0366,0.0355,0.0353,0.0351,0.0349,0.0348,0.0365,0.035,0.0359,0.0386,0.0392,0.0397,0.0401,0.0387,0.039,0.0361,0.0361,0.0361,0,0.0332,0.0353,0.0349,0.0364,0.0374,0.0361,0.038,0.0381,0.0381,0.039,0.0375,0.0381,0.0366,0.0384,0.0383,0.0374,0.0368,0.0374,0.0397,0.0401,0.0405,0.039,0.0392,0.0363,0.0362,0.0362,0.0362,0,0.036,0.0374,0.0384,0.0403,0.0411,0.0423,0.0426,0.0433,0.0431,0.0432,0.0447,0.0429,0.0436,0.0424,0.0407,0.0425,0.0408,0.0401,0.0391,0.0412,0.0395,0.0397,0.0365,0.0365,0.0364,0.0364,0,0,0.0372,0.0399,0.0402,0.0423,0.0434,0.0448,0.0466,0.0485,0.0511,0.0498,0.0534,0.0512,0.0502,0.0499,0.0478,0.0472,0.0475,0.0445,0.0445,0.0437,0.0477,0.0463,0.0464,0.0475,0.0476,0.0477,0.045,0,0.0396,0.0436,0.0442,0.0482,0.0506,0.0507,0.0533,0.0546,0.0553,0.0582,0.0563,0.0585,0.0532,0.0541,0.0526,0.0499,0.0484,0.0482,0.0453,0.0452,0.0442,0.0467,0.0496,0.0476,0.0452,0.0452,0.0452,0,0.0424,0.045,0.0493,0.0538,0.055,0.0572,0.0618,0.064,0.0665,0.0673,0.0681,0.0672,0.0667,0.0621,0.058,0.0582,0.053,0.0496,0.0495,0.0474,0.0443,0.0452,0.048,0.0464,0.0455,0.0455,0.0455,0,0.0445,0.0489,0.0528,0.0541,0.0585,0.0611,0.0637,0.0668,0.0706,0.0739,0.0775,0.0756,0.0767,0.0709,0.0629,0.0611,0.0581,0.0551,0.0485,0.0482,0.0497,0.0495,0.0513,0.0518,0.0518,0.0518,0.0518,0,0.0475,0.0507,0.0543,0.0567,0.0628,0.0646,0.0714,0.0735,0.0787,0.0852,0.083,0.0878,0.079,0.0762,0.067,0.059,0.0613,0.0498,0.0484,0.0509,0.0508,0.0486,0.0467,0.0517,0.0517,0.0517,0.0518,0,0.0496,0.0514,0.0567,0.0619,0.064,0.0686,0.0767,0.0818,0.086,0.0948,0.0969,0.0975,0.0937,0.0836,0.0745,0.0654,0.0561,0.0532,0.0556,0.0545,0.0462,0.0443,0.0434,0.0414,0.046,0.046,0.046,0,0.0512,0.0539,0.0605,0.0642,0.0669,0.0739,0.0792,0.0849,0.0912,0.1016,0.1067,0.1061,0.1069,0.0927,0.0768,0.0617,0.0561,0.0533,0.0499,0.0473,0.0442,0.0428,0.0412,0.0525,0.0525,0.0526,0.0526,0,0.0545,0.0564,0.0607,0.068,0.074,0.0818,0.09,0.0961,0.1047,0.1131,0.1228,0.1248,0.1123,0.0997,0.0784,0.0672,0.0539,0.0531,0.0513,0.0506,0.0486,0.0456,0.0509,0.0528,0.0528,0.0527,0.0527,0.0527,0.0569,0.0603,0.0653,0.0724,0.0794,0.0883,0.0952,0.1053,0.1169,0.1296,0.1323,0.1359,0.1197,0.0917,0.0781,0.0562,0.054,0.0496,0.0476,0.0465,0.0454,0.0499,0.0497,0.0497,0.0496,0.0496,0.0496,0,0.0592,0.0629,0.0695,0.0778,0.0849,0.0887,0.1013,0.1094,0.1232,0.1339,0.1423,0.1354,0.1179,0.0956,0.0681,0.0552,0.0489,0.0478,0.0481,0.0464,0.0521,0.0532,0.0529,0.0529,0.0529,0.0529,0.0529,0.0529,0.0606,0.0658,0.0688,0.08,0.0862,0.096,0.103,0.1166,0.126,0.1373,0.1383,0.1382,0.1246,0.0878,0.0636,0.0555,0.0475,0.0448,0.0396,0.0456,0.0457,0.0457,0.0465,0.0448,0.0448,0.0367,0.0366,0.0365]}],[{"header":{"parameterUnit":"m.s-1","parameterCategory":2,"la1":30.2991,"la2":30.254,"lo1":-89.0895,"lo2":-89.0444,"dy":0.0017,"dx":0.0017,"nx":28,"ny":28,"refTime":"2025-11-21T09:00:00:Z","depth":"2","parameterNumber":2,"parameterNumberName":"U-component_of_CURRENTS"},"data":[0,0,0,0,0,0,0,0,0,0,0,0,0,0,0,0,0,0,0,0,0,0,0,0,0,0,0,0,0,0,0,0,0,0,0,0,0,0,0,0,0,0,0,0,0,0,0,0,0,0,0,0,0,0,0,0,0,0,0.1676,0.1676,0,0.1677,0.1677,0.1677,0.1675,0.1675,0.1675,0.1675,0.1685,0.1685,0.1686,0,0,0,0,0,0,0,0,0,0,0,0,0,0.1684,0.1683,0.1676,0.1676,0.1676,0.1677,0.1677,0.1677,0.1675,0.1675,0.1675,0.1675,0.1685,0.1685,0.1686,0,0,0,0,0,0,0,0,0,0,0,0,0,0.1681,0.1683,0.1676,0.1676,0.1676,0.1677,0.1677,0.1677,0.1675,0.1675,0.1675,0.1675,0.1685,0.1685,0.1686,0.1688,0,0,0.1687,0.1687,0,0,0,0,0,0,0,0,0.1681,0.1681,0.1676,0.1676,0.1676,0.1677,0.1684,0.1681,0.1675,0.1674,0.1675,0.1675,0.1684,0.1684,0.1683,0.1688,0.1688,0.1687,0.1687,0.1687,0.1687,0,0,0,0,0,0,0,0.1682,0.1681,0.1675,0.1676,0.1676,0.168,0.168,0.1683,0.1678,0.1674,0.1674,0.1676,0.1684,0.1682,0.1683,0.1689,0.1687,0.1687,0.1687,0.1688,0.1738,0.1739,0,0,0,0,0,0,0.1683,0.1681,0.1675,0.1675,0.168,0.168,0.1679,0.1676,0.1678,0.1679,0.1676,0.1676,0.1682,0.1683,0.1684,0.1718,0.1687,0.1688,0.1688,0.1737,0.1739,0.174,0,0,0,0,0,0,0.1683,0.1682,0.1675,0.1679,0.1679,0.168,0.1676,0.1676,0.1682,0.168,0.168,0.1684,0.1682,0.1683,0.1696,0.1718,0.1688,0.1688,0.1736,0.1738,0.1739,0.1768,0,0,0,0,0,0,0.1683,0.1682,0.1684,0.1679,0.1679,0.1682,0.1676,0.1676,0.1683,0.1684,0.1686,0.1687,0.1682,0.1696,0.1697,0.1718,0.1688,0.1735,0.1737,0.1739,0.1765,0.177,0.1774,0,0,0,0,0,0.1683,0.1685,0.1684,0.1684,0.168,0.1683,0.1683,0.1683,0.1684,0.1689,0.1693,0.1687,0.171,0.1697,0.1697,0.1719,0.1734,0.1736,0.1739,0.1763,0.1769,0.1774,0,0,0,0,0,0,0.1691,0.1685,0.1684,0.1684,0.1687,0.1683,0.1689,0.1689,0.1695,0.1699,0.1695,0.1696,0.1718,0.1715,0.1701,0.1742,0.1724,0.1726,0.1742,0.1748,0.1752,0.1749,0.1689,0,0,0,0,0,0.1693,0.1693,0.169,0.1692,0.1695,0.1694,0.1697,0.1698,0.1701,0.1703,0.1705,0.1714,0.1728,0.1735,0.1742,0.176,0.1768,0.1778,0.1782,0.1786,0.1786,0.1829,0.1837,0.1748,0.1748,0.1748,0,0,0.1697,0.1695,0.1694,0.1694,0.1697,0.1702,0.1696,0.1704,0.1712,0.1704,0.1719,0.1728,0.1737,0.1758,0.1769,0.1759,0.1814,0.1789,0.1792,0.179,0.1832,0.1841,0.1849,0.175,0.175,0.1749,0,0,0.1702,0.1703,0.1704,0.1707,0.1713,0.1715,0.172,0.1721,0.1727,0.1743,0.1744,0.1765,0.178,0.179,0.1799,0.1834,0.1836,0.1842,0.1861,0.1904,0.1911,0.1918,0.1931,0.1939,0.1844,0.1844,0.1844,0,0.1709,0.1706,0.1707,0.171,0.1715,0.1722,0.1728,0.1737,0.1743,0.1755,0.1754,0.1794,0.1797,0.1831,0.1842,0.1843,0.186,0.1838,0.1909,0.1916,0.1923,0.1935,0.1943,0.1846,0.1846,0.1846,0.1846,0,0.1711,0.1714,0.1718,0.1723,0.173,0.1738,0.1748,0.1762,0.1775,0.1786,0.1823,0.1834,0.1859,0.1868,0.1863,0.1913,0.1907,0.191,0.1894,0.1933,0.1943,0.1951,0.1849,0.1848,0.1847,0.1847,0,0,0.1709,0.1717,0.1719,0.1722,0.1738,0.1741,0.1765,0.1786,0.1811,0.183,0.1866,0.189,0.1904,0.1915,0.192,0.195,0.2003,0.195,0.1951,0.1959,0.2084,0.2006,0.2007,0.2026,0.2028,0.2029,0.207,0,0.1711,0.1715,0.1722,0.1734,0.1736,0.1756,0.1779,0.1803,0.1831,0.1869,0.1897,0.1936,0.1922,0.1946,0.1974,0.2003,0.2027,0.199,0.2048,0.2049,0.1972,0.2015,0.1823,0.1837,0.2077,0.2079,0.208,0,0.1704,0.1709,0.1716,0.1736,0.1741,0.1755,0.1795,0.1819,0.1877,0.1904,0.1949,0.1976,0.2024,0.2011,0.2076,0.2057,0.207,0.2085,0.2087,0.2009,0.1986,0.1839,0.1842,0.2093,0.2092,0.2091,0.209,0,0.1687,0.1703,0.1708,0.1713,0.174,0.1756,0.1781,0.1831,0.1859,0.1936,0.1972,0.2031,0.2069,0.2108,0.2128,0.2118,0.2192,0.2185,0.2121,0.2115,0.1957,0.1934,0.2229,0.2229,0.2229,0.2229,0.2229,0,0.1676,0.168,0.1701,0.1703,0.1724,0.1749,0.1788,0.1826,0.1887,0.1926,0.1992,0.2029,0.2099,0.2142,0.2155,0.2157,0.2217,0.2128,0.2127,0.196,0.1938,0.2164,0.2156,0.223,0.223,0.223,0.223,0,0.165,0.1664,0.1671,0.17,0.1713,0.1729,0.1782,0.1808,0.1879,0.1936,0.1966,0.2045,0.2101,0.2146,0.2209,0.2181,0.22,0.2181,0.1964,0.1936,0.2087,0.208,0.2124,0.2122,0.212,0.2118,0.2117,0,0.1635,0.1635,0.1662,0.1667,0.1681,0.1713,0.1733,0.1798,0.1824,0.1931,0.1948,0.2031,0.2052,0.2106,0.2083,0.2089,0.2159,0.1914,0.1857,0.2084,0.208,0.2076,0.2071,0.1659,0.1654,0.165,0.1647,0,0.1609,0.1621,0.1627,0.1638,0.1653,0.1669,0.1703,0.1718,0.1797,0.1838,0.1882,0.1913,0.1954,0.1862,0.1873,0.1854,0.19,0.183,0.2144,0.1712,0.1649,0.1643,0.1654,0.1611,0.1614,0.1617,0.1619,0.162,0.1592,0.1588,0.1596,0.16,0.1613,0.1607,0.16,0.1628,0.1648,0.1675,0.1751,0.1727,0.1738,0.1643,0.1586,0.1541,0.1686,0.1608,0.162,0.1637,0.1572,0.1508,0.1431,0.1433,0.1435,0.1437,0.1439,0,0.1558,0.1555,0.1555,0.1547,0.1526,0.1559,0.156,0.1525,0.1504,0.153,0.1537,0.1391,0.131,0.1329,0.1187,0.118,0.1166,0.1139,0.1102,0.1138,0.1171,0.1082,0.0811,0.081,0.0808,0.0806,0,0,0.1541,0.1518,0.1508,0.1456,0.1452,0.1405,0.1388,0.1342,0.1324,0.1253,0.1207,0.1274,0.1292,0.1047,0.1002,0.088,0.1009,0.0841,0.1344,0.1338,0.1368,0.144,0.1344,0,0,0,0,0]},{"header":{"parameterUnit":"m.s-1","parameterCategory":2,"la1":30.2991,"la2":30.254,"lo1":-89.0895,"lo2":-89.0444,"dy":0.0017,"dx":0.0017,"nx":28,"ny":28,"refTime":"2025-11-21T09:00:00:Z","depth":"2","parameterNumber":3,"parameterNumberName":"V-component_of_CURRENTS"},"data":[0,0,0,0,0,0,0,0,0,0,0,0,0,0,0,0,0,0,0,0,0,0,0,0,0,0,0,0,0,0,0,0,0,0,0,0,0,0,0,0,0,0,0,0,0,0,0,0,0,0,0,0,0,0,0,0,0,0,0.0136,0.0136,0,0.0128,0.0128,0.0128,0.0118,0.0118,0.0118,0.0117,0.0098,0.0098,0.0098,0,0,0,0,0,0,0,0,0,0,0,0,0,0.0122,0.0122,0.0136,0.0136,0.0136,0.0128,0.0128,0.0128,0.0118,0.0118,0.0118,0.0117,0.0098,0.0098,0.0097,0,0,0,0,0,0,0,0,0,0,0,0,0,0.0122,0.0122,0.0136,0.0131,0.013,0.0128,0.0128,0.0127,0.0118,0.0118,0.0117,0.0117,0.0099,0.0098,0.0097,0.0096,0,0,0.0095,0.0095,0,0,0,0,0,0,0,0,0.0122,0.0122,0.0132,0.0131,0.013,0.0124,0.0116,0.0117,0.0118,0.0122,0.0117,0.0117,0.0107,0.0105,0.0103,0.0095,0.0095,0.0095,0.0095,0.0095,0.0095,0,0,0,0,0,0,0,0.0122,0.0122,0.0132,0.0132,0.0131,0.0121,0.0121,0.0116,0.0114,0.0121,0.0121,0.0121,0.0106,0.0104,0.0103,0.0094,0.0095,0.0095,0.0094,0.0094,0.0092,0.0093,0,0,0,0,0,0,0.0126,0.0123,0.0132,0.0132,0.0126,0.0122,0.0122,0.0126,0.0115,0.0113,0.0121,0.0121,0.0105,0.0103,0.0102,0.0115,0.0095,0.0094,0.0094,0.0092,0.0093,0.0093,0,0,0,0,0,0,0.0125,0.0127,0.0133,0.0127,0.0127,0.0122,0.0127,0.0126,0.0126,0.0115,0.0113,0.0123,0.0105,0.0103,0.0103,0.0114,0.0094,0.0093,0.0092,0.0092,0.0093,0.0131,0,0,0,0,0,0,0.0125,0.0127,0.013,0.0128,0.0128,0.0136,0.0127,0.0126,0.0127,0.0126,0.0116,0.0114,0.0105,0.0104,0.0103,0.0112,0.0093,0.0091,0.0092,0.0093,0.013,0.0133,0.0136,0,0,0,0,0,0.0125,0.0132,0.013,0.0131,0.0133,0.0136,0.0136,0.0131,0.0127,0.013,0.0125,0.0114,0.0107,0.0104,0.0102,0.0112,0.0091,0.0092,0.0092,0.0128,0.0132,0.0136,0,0,0,0,0,0,0.0126,0.0131,0.013,0.0138,0.0139,0.0135,0.0138,0.0134,0.0132,0.0131,0.012,0.0117,0.0121,0.0111,0.0108,0.0112,0.0097,0.0097,0.0125,0.0128,0.0132,0.0141,0.0092,0,0,0,0,0,0.0128,0.0136,0.0137,0.0144,0.0146,0.0143,0.0143,0.014,0.0138,0.0137,0.0132,0.0125,0.0122,0.0121,0.0115,0.0119,0.0108,0.0123,0.0126,0.0129,0.0134,0.0132,0.0136,0.0095,0.0095,0.0095,0,0,0.013,0.0134,0.0138,0.0145,0.0145,0.0155,0.0143,0.0146,0.0156,0.0135,0.0147,0.0136,0.0125,0.013,0.0131,0.0123,0.0133,0.013,0.0132,0.0136,0.0134,0.0138,0.0141,0.0096,0.0096,0.0096,0,0,0.014,0.0143,0.0154,0.0159,0.0163,0.0164,0.0167,0.0167,0.0169,0.0177,0.0165,0.0162,0.0158,0.0154,0.0151,0.0168,0.015,0.0164,0.0189,0.0187,0.0191,0.0194,0.0178,0.018,0.0166,0.0166,0.0166,0,0.0142,0.0159,0.0157,0.017,0.018,0.0171,0.0187,0.0189,0.0189,0.0196,0.0186,0.0186,0.0172,0.0183,0.0185,0.0176,0.0167,0.0176,0.0192,0.0195,0.0197,0.0181,0.0182,0.0168,0.0168,0.0167,0.0167,0,0.0164,0.0176,0.0185,0.0202,0.021,0.0222,0.0227,0.0234,0.0234,0.0236,0.0246,0.0229,0.0231,0.0223,0.0208,0.022,0.0204,0.0197,0.0184,0.0204,0.0185,0.0185,0.0171,0.017,0.0169,0.0169,0,0,0.0171,0.0196,0.0199,0.0217,0.023,0.0242,0.026,0.0277,0.0298,0.029,0.0317,0.0299,0.0289,0.0285,0.0266,0.0259,0.0258,0.0236,0.0235,0.0224,0.0246,0.0239,0.0238,0.0255,0.0256,0.0256,0.0224,0,0.019,0.0224,0.0231,0.0266,0.0286,0.0291,0.0313,0.0326,0.0334,0.0356,0.034,0.0356,0.0314,0.032,0.0305,0.0278,0.0262,0.0267,0.0226,0.0224,0.0219,0.024,0.0252,0.0226,0.0224,0.0224,0.0224,0,0.0212,0.0234,0.0271,0.0309,0.032,0.0339,0.0379,0.0399,0.042,0.0428,0.0433,0.0424,0.0416,0.038,0.0336,0.0342,0.0296,0.0265,0.0263,0.0245,0.0219,0.0207,0.0226,0.0224,0.0224,0.0224,0.0224,0,0.0226,0.0264,0.0297,0.031,0.0348,0.037,0.0394,0.0421,0.0454,0.048,0.0507,0.0488,0.0493,0.0439,0.0369,0.0357,0.0317,0.0295,0.024,0.0238,0.0235,0.0233,0.026,0.026,0.026,0.026,0.026,0,0.0249,0.0276,0.0309,0.0329,0.0379,0.0397,0.0454,0.0473,0.0515,0.0567,0.0549,0.0581,0.0509,0.0477,0.0398,0.0325,0.0339,0.025,0.0236,0.0248,0.0247,0.0235,0.0233,0.0259,0.0259,0.026,0.026,0,0.0262,0.028,0.0324,0.0369,0.0388,0.0427,0.0498,0.0541,0.0574,0.0643,0.0659,0.0656,0.0623,0.0538,0.0454,0.0372,0.0298,0.0262,0.0274,0.0262,0.0208,0.0208,0.0204,0.0204,0.0204,0.0204,0.0203,0,0.0272,0.0294,0.0353,0.0386,0.0411,0.0472,0.0519,0.0567,0.0617,0.0692,0.0728,0.0722,0.0724,0.0596,0.0467,0.0339,0.0307,0.0247,0.0227,0.0219,0.0205,0.0206,0.0206,0.023,0.023,0.023,0.023,0,0.0294,0.0312,0.035,0.0416,0.0469,0.0537,0.0607,0.0654,0.0723,0.0781,0.0843,0.0853,0.0756,0.0644,0.0472,0.0376,0.0271,0.0243,0.0246,0.0245,0.0242,0.0228,0.0228,0.023,0.023,0.023,0.023,0.023,0.031,0.0338,0.0386,0.0452,0.0514,0.0591,0.065,0.0727,0.0813,0.0899,0.0909,0.0921,0.0803,0.0591,0.0444,0.028,0.0289,0.021,0.0211,0.0211,0.0223,0.022,0.0205,0.0205,0.0205,0.0205,0.0205,0,0.0328,0.0363,0.042,0.0496,0.056,0.0597,0.07,0.0757,0.0856,0.0932,0.0982,0.0856,0.0751,0.0602,0.0378,0.0242,0.0222,0.0177,0.0189,0.0191,0.0192,0.0203,0.0179,0.0179,0.0178,0.0178,0,0,0.0339,0.0386,0.0414,0.0514,0.0574,0.0662,0.0721,0.0808,0.0875,0.0932,0.0943,0.096,0.0797,0.0621,0.0449,0.0319,0.0276,0.0278,0.0315,0.0353,0.0355,0.023,0.0252,0,0,0,0,0]}],[{"header":{"parameterUnit":"m.s-1","parameterCategory":2,"la1":30.2991,"la2":30.254,"lo1":-89.0895,"lo2":-89.0444,"dy":0.0017,"dx":0.0017,"nx":28,"ny":28,"refTime":"2025-11-21T09:00:00:Z","depth":"4","parameterNumber":2,"parameterNumberName":"U-component_of_CURRENTS"},"data":[0,0,0,0,0,0,0,0,0,0,0,0,0,0,0,0,0,0,0,0,0,0,0,0,0,0,0,0,0,0,0,0,0,0,0,0,0,0,0,0,0,0,0,0,0,0,0,0,0,0,0,0,0,0,0,0,0,0,0.1,0.1,0,0.1029,0.1029,0.1029,0.1057,0.1058,0.1058,0.1058,0.109,0.109,0.109,0,0,0,0,0,0,0,0,0,0,0,0,0,0.0972,0.0972,0.1,0.1,0.1001,0.1029,0.1029,0.1029,0.1057,0.1058,0.1058,0.1059,0.1089,0.109,0.109,0,0,0,0,0,0,0,0,0,0,0,0,0,0.099,0.0972,0.1,0.1019,0.1021,0.1029,0.1029,0.1029,0.1057,0.1058,0.1058,0.1059,0.1089,0.109,0.109,0.108,0,0,0.1092,0.1092,0,0,0,0,0,0,0,0,0.0989,0.099,0.1016,0.1018,0.102,0.1041,0.1031,0.1047,0.1057,0.1042,0.1058,0.1059,0.1074,0.1076,0.1078,0.1081,0.1083,0.1092,0.1093,0.1093,0.1093,0,0,0,0,0,0,0,0.0987,0.0989,0.101,0.1016,0.1019,0.1028,0.1031,0.1034,0.1053,0.1043,0.1046,0.1051,0.1075,0.1077,0.1079,0.1083,0.1092,0.1093,0.1093,0.1093,0.1152,0.1154,0,0,0,0,0,0,0.0985,0.0988,0.1009,0.1011,0.1007,0.1027,0.1031,0.1033,0.1053,0.1057,0.105,0.1052,0.1076,0.1078,0.108,0.1132,0.1093,0.1093,0.1094,0.1151,0.1153,0.1154,0,0,0,0,0,0,0.0985,0.0987,0.1008,0.1002,0.1005,0.1027,0.1029,0.1033,0.1058,0.1058,0.1062,0.1074,0.1076,0.1079,0.1106,0.1131,0.1094,0.1094,0.115,0.1152,0.1153,0.1194,0,0,0,0,0,0,0.0984,0.0986,0.0998,0.1001,0.1005,0.1027,0.1029,0.1033,0.1059,0.1063,0.108,0.1082,0.1077,0.1105,0.1106,0.1131,0.1095,0.1148,0.1151,0.1153,0.1191,0.1197,0.1202,0,0,0,0,0,0.0982,0.0991,0.0998,0.1002,0.1017,0.1028,0.1031,0.1048,0.106,0.1073,0.1089,0.1083,0.1121,0.1106,0.1107,0.1133,0.1147,0.115,0.1153,0.1189,0.1196,0.1202,0,0,0,0,0,0,0.0987,0.0995,0.1003,0.1015,0.1029,0.1033,0.1051,0.1061,0.1083,0.1094,0.1094,0.1097,0.1131,0.1127,0.1111,0.1158,0.1134,0.1137,0.1162,0.1168,0.1174,0.1172,0.1095,0,0,0,0,0,0.0993,0.1003,0.1011,0.1025,0.1033,0.1047,0.1059,0.107,0.1084,0.1096,0.1108,0.1124,0.1139,0.115,0.116,0.1182,0.1184,0.1201,0.1207,0.1211,0.1212,0.1247,0.1255,0.1163,0.1163,0.1163,0,0,0.0999,0.1006,0.1013,0.1027,0.1041,0.1054,0.1056,0.1081,0.1097,0.1095,0.113,0.1144,0.1149,0.1177,0.1192,0.118,0.1238,0.1215,0.1219,0.1216,0.125,0.1259,0.1267,0.1165,0.1164,0.1164,0,0,0.1008,0.1024,0.1034,0.1047,0.107,0.1077,0.1089,0.1107,0.1125,0.1156,0.1161,0.119,0.1213,0.1221,0.1228,0.1269,0.1267,0.1279,0.1305,0.1339,0.1347,0.1354,0.1364,0.1372,0.1281,0.1282,0.1282,0,0.102,0.1028,0.1041,0.1054,0.1067,0.1089,0.1104,0.1122,0.1149,0.1167,0.1177,0.1227,0.1233,0.1263,0.128,0.1281,0.1295,0.1278,0.1346,0.1353,0.1359,0.1368,0.1376,0.1284,0.1284,0.1283,0.1283,0,0.1027,0.1045,0.1055,0.1076,0.1093,0.1112,0.1133,0.1162,0.1191,0.1209,0.1259,0.1274,0.1304,0.1314,0.131,0.1359,0.1352,0.1349,0.1328,0.1371,0.1378,0.1385,0.1287,0.1286,0.1286,0.1285,0,0,0.1022,0.1053,0.106,0.1073,0.1107,0.1118,0.1155,0.1188,0.1219,0.1259,0.1302,0.1335,0.1356,0.1364,0.137,0.1398,0.1453,0.1398,0.1399,0.1405,0.1522,0.1405,0.1401,0.147,0.1472,0.1473,0.1506,0,0.1027,0.1049,0.1066,0.1096,0.1108,0.1141,0.1172,0.1209,0.1249,0.1297,0.1331,0.1376,0.1371,0.1399,0.1428,0.1451,0.1475,0.1443,0.1481,0.1482,0.1371,0.1407,0.1478,0.1512,0.1513,0.1514,0.1515,0,0.1023,0.1039,0.1065,0.1103,0.1114,0.114,0.1196,0.1226,0.1294,0.133,0.1384,0.1415,0.1468,0.146,0.152,0.1506,0.1518,0.1528,0.153,0.141,0.1379,0.1461,0.1528,0.1527,0.1526,0.1525,0.1525,0,0.0998,0.1037,0.1058,0.1071,0.1119,0.1148,0.1181,0.1243,0.1276,0.1361,0.1402,0.1465,0.1508,0.1544,0.1566,0.1559,0.1622,0.1613,0.1514,0.1506,0.1582,0.1574,0.1653,0.1653,0.1653,0.1653,0.1653,0,0.0981,0.1002,0.1054,0.1065,0.1102,0.1142,0.1193,0.1238,0.1308,0.1348,0.1422,0.1458,0.1536,0.1576,0.1589,0.1566,0.1643,0.1519,0.1509,0.1598,0.1591,0.1587,0.1579,0.1654,0.1654,0.1654,0.1653,0,0.0947,0.0981,0.101,0.1068,0.1091,0.1121,0.1193,0.1224,0.1301,0.1358,0.139,0.1475,0.1525,0.1573,0.1629,0.1579,0.1581,0.1552,0.1635,0.163,0.1435,0.1429,0.1445,0.1442,0.1438,0.1436,0.1433,0,0.0927,0.094,0.1007,0.1027,0.1059,0.111,0.1141,0.1217,0.1244,0.1347,0.1361,0.1445,0.1489,0.1469,0.1531,0.1541,0.1521,0.1502,0.1469,0.1426,0.1416,0.1415,0.1413,0.1428,0.1428,0.1427,0.1426,0,0.0891,0.0928,0.0954,0.0995,0.1032,0.1061,0.1109,0.1118,0.1199,0.1284,0.1298,0.132,0.1366,0.1398,0.1413,0.1418,0.1506,0.1468,0.1475,0.1444,0.1406,0.1399,0.1401,0.1415,0.1416,0.1417,0.1418,0,0.0873,0.0882,0.0923,0.095,0.0992,0.0991,0.1024,0.1043,0.1076,0.1179,0.1181,0.1267,0.1348,0.1334,0.1351,0.1345,0.1324,0.1269,0.1285,0.1298,0.1234,0.1163,0.109,0,0,0,0,0,0.0849,0.0848,0.087,0.0886,0.0922,0.0943,0.0991,0.1021,0.1097,0.1072,0.1119,0.1153,0.1172,0.1217,0.1182,0.1293,0.1335,0.1246,0.1282,0.1353,0.1366,0.1304,0,0,0,0,0,0,0.083,0.0852,0.0849,0.0827,0.0825,0.0848,0.0873,0.0921,0.0906,0.0992,0.1011,0.1076,0.112,0.1186,0.1162,0.1175,0.1168,0.13,0.1296,0.1346,0.1358,0.1368,0.1308,0,0,0,0,0]},{"header":{"parameterUnit":"m.s-1","parameterCategory":2,"la1":30.2991,"la2":30.254,"lo1":-89.0895,"lo2":-89.0444,"dy":0.0017,"dx":0.0017,"nx":28,"ny":28,"refTime":"2025-11-21T09:00:00:Z","depth":"4","parameterNumber":3,"parameterNumberName":"V-component_of_CURRENTS"},"data":[0,0,0,0,0,0,0,0,0,0,0,0,0,0,0,0,0,0,0,0,0,0,0,0,0,0,0,0,0,0,0,0,0,0,0,0,0,0,0,0,0,0,0,0,0,0,0,0,0,0,0,0,0,0,0,0,0,0,0.009,0.009,0,0.0084,0.0084,0.0084,0.0076,0.0076,0.0076,0.0076,0.0061,0.0061,0.0061,0,0,0,0,0,0,0,0,0,0,0,0,0,0.0081,0.0082,0.009,0.009,0.009,0.0084,0.0084,0.0084,0.0076,0.0076,0.0076,0.0076,0.0062,0.0061,0.0061,0,0,0,0,0,0,0,0,0,0,0,0,0,0.0081,0.0082,0.009,0.0086,0.0086,0.0084,0.0084,0.0084,0.0076,0.0076,0.0076,0.0076,0.0062,0.0061,0.0061,0.006,0,0,0.0059,0.0059,0,0,0,0,0,0,0,0,0.0081,0.0081,0.0087,0.0086,0.0086,0.0081,0.0075,0.0075,0.0077,0.008,0.0076,0.0076,0.0068,0.0067,0.0065,0.0059,0.0059,0.0059,0.0059,0.0059,0.0059,0,0,0,0,0,0,0,0.0081,0.0081,0.0088,0.0087,0.0086,0.0079,0.0079,0.0075,0.0074,0.0079,0.0079,0.0079,0.0067,0.0066,0.0065,0.0059,0.0059,0.0059,0.0059,0.0058,0.0058,0.0059,0,0,0,0,0,0,0.0083,0.0081,0.0088,0.0087,0.0083,0.008,0.0079,0.0083,0.0074,0.0073,0.0079,0.0078,0.0067,0.0065,0.0064,0.0075,0.0059,0.0058,0.0058,0.0058,0.0058,0.0059,0,0,0,0,0,0,0.0083,0.0084,0.0088,0.0084,0.0084,0.008,0.0083,0.0082,0.0083,0.0074,0.0072,0.0081,0.0067,0.0065,0.0066,0.0074,0.0058,0.0058,0.0058,0.0058,0.0059,0.0088,0,0,0,0,0,0,0.0083,0.0084,0.0087,0.0085,0.0085,0.009,0.0084,0.0082,0.0083,0.0083,0.0075,0.0073,0.0066,0.0067,0.0066,0.0073,0.0057,0.0057,0.0058,0.0058,0.0087,0.009,0.0092,0,0,0,0,0,0.0083,0.0088,0.0087,0.0088,0.0089,0.009,0.009,0.0086,0.0083,0.0086,0.0082,0.0074,0.0069,0.0067,0.0065,0.0072,0.0057,0.0058,0.0058,0.0086,0.0089,0.0092,0,0,0,0,0,0,0.0084,0.0088,0.0087,0.0093,0.0093,0.0089,0.0091,0.0088,0.0087,0.0087,0.0078,0.0077,0.008,0.0072,0.0069,0.0074,0.0061,0.0062,0.0083,0.0086,0.0088,0.0093,0.0057,0,0,0,0,0,0.0087,0.0093,0.0093,0.0097,0.0099,0.0096,0.0096,0.0093,0.0091,0.0091,0.0087,0.0082,0.0081,0.008,0.0076,0.0079,0.0067,0.0082,0.0085,0.0087,0.009,0.008,0.0082,0.0061,0.0061,0.0061,0,0,0.0088,0.0091,0.0094,0.0098,0.0098,0.0105,0.0095,0.0097,0.0105,0.0089,0.0099,0.0091,0.0084,0.0088,0.0089,0.0083,0.0085,0.0088,0.009,0.0091,0.0081,0.0083,0.0085,0.0061,0.0061,0.0061,0,0,0.0095,0.0098,0.0105,0.0109,0.0111,0.0111,0.0113,0.0113,0.0115,0.0121,0.0113,0.0111,0.0109,0.0106,0.0104,0.0117,0.0099,0.0115,0.0133,0.0123,0.0125,0.0126,0.011,0.0109,0.0116,0.0116,0.0117,0,0.0097,0.0108,0.0107,0.0116,0.0123,0.0117,0.0128,0.0129,0.013,0.0134,0.0128,0.0128,0.0119,0.0126,0.013,0.0124,0.0112,0.0123,0.0127,0.0128,0.0129,0.0111,0.0111,0.0118,0.0118,0.0118,0.0118,0,0.011,0.012,0.0125,0.0138,0.0144,0.0152,0.0156,0.0162,0.0163,0.0164,0.0171,0.016,0.0159,0.0155,0.0147,0.0151,0.0138,0.0131,0.012,0.0133,0.0113,0.0112,0.012,0.012,0.0119,0.0119,0,0,0.0113,0.0131,0.0134,0.0146,0.0157,0.0165,0.018,0.0192,0.0205,0.0201,0.0217,0.0209,0.0199,0.0196,0.0183,0.0175,0.0167,0.0157,0.0156,0.0142,0.0141,0.0134,0.0131,0.0161,0.0161,0.0161,0.0124,0,0.0125,0.0147,0.0154,0.0179,0.0192,0.0198,0.0215,0.0225,0.023,0.0243,0.0232,0.024,0.0216,0.0218,0.0205,0.0181,0.0166,0.0178,0.0129,0.0128,0.0121,0.0131,0.0161,0.0122,0.0122,0.0122,0.0122,0,0.0137,0.0152,0.0177,0.0205,0.0212,0.0227,0.0255,0.027,0.0283,0.0288,0.0288,0.0279,0.0271,0.0249,0.0208,0.0217,0.018,0.0156,0.0154,0.0137,0.0119,0.0107,0.0119,0.0119,0.0119,0.012,0.012,0,0.0141,0.0169,0.0191,0.0201,0.023,0.0246,0.0264,0.0283,0.0305,0.0318,0.0333,0.0314,0.0313,0.0269,0.0217,0.0213,0.0168,0.0156,0.0112,0.0111,0.0115,0.0114,0.0123,0.0123,0.0123,0.0123,0.0123,0,0.0152,0.0171,0.0197,0.0211,0.0245,0.026,0.0298,0.0312,0.0339,0.0371,0.0356,0.0371,0.0319,0.0288,0.023,0.0169,0.0175,0.0117,0.0104,0.0127,0.0128,0.0113,0.0113,0.0121,0.0122,0.0122,0.0122,0,0.0154,0.017,0.0199,0.0233,0.0248,0.0273,0.0326,0.0353,0.0375,0.0415,0.0424,0.0415,0.0381,0.0319,0.025,0.0192,0.0131,0.0103,0.0132,0.012,0.0074,0.0075,0.0054,0.0054,0.0053,0.0053,0.0053,0,0.0156,0.017,0.0214,0.0238,0.0257,0.0299,0.0333,0.0368,0.0402,0.0443,0.0463,0.0447,0.0431,0.0329,0.0257,0.0149,0.0128,0.0083,0.0079,0.0079,0.0068,0.007,0.0072,0.0052,0.0052,0.0052,0.0052,0,0.0161,0.0176,0.0202,0.025,0.0289,0.0337,0.0387,0.0413,0.046,0.048,0.0499,0.0458,0.0419,0.0337,0.0254,0.0173,0.0108,0.0078,0.0078,0.0074,0.0076,0.0066,0.0069,0.005,0.005,0.0051,0.0051,0,0.0165,0.0182,0.0217,0.0262,0.0311,0.0363,0.039,0.0436,0.047,0.0513,0.0517,0.0481,0.0461,0.035,0.0273,0.0197,0.0171,0.0127,0.0124,0.0124,0.0154,0.0168,0.0162,0,0,0,0,0,0.0169,0.0192,0.0229,0.028,0.033,0.0362,0.0423,0.0449,0.0493,0.051,0.0517,0.0483,0.0389,0.035,0.0274,0.0253,0.0148,0.0157,0.0092,0.0042,0.0044,0.0066,0,0,0,0,0,0,0.0172,0.0205,0.0226,0.0289,0.0326,0.0385,0.0425,0.0456,0.0467,0.0497,0.0452,0.0443,0.0354,0.0434,0.0266,0.0245,0.0187,0.012,0.0117,0.0041,0.0043,0.0044,0.0067,0,0,0,0,0]}]]